Location: Ferma
(41.9500°N, 44.5167°E)
Time: 04:19:11
(UTC+00:00)

NOSS 2-3 (D) - Pass Details

Date: 31 May 2022
Orbit: 536 x 1674 km, 63.3° (Epoch: 02 June)

Event Time Altitude Azimuth Distance (km) Brightness Sun altitude
Rises 20:38:02 0° 314° (NW) 3,670 8.2 -25.8°
Reaches altitude 10° 20:40:37 10° 305° (NW) 2,881 7.4 -25.9°
Maximum altitude 20:46:42 33° 244° (WSW) 1,982 5.9 -26.0°
Enters shadow 20:47:48 32° 229° (SW) 2,071 5.8 -26.0°
